GW3958 Weather Reports


time (UTC)temp
F
wind
direction
speed
knots
gust
knots
rain 1hr
in
rain 24hr
in
rain mn
in
humidity
%
barometer
mb
20260504174520 66 196 0.0 2.6 0.00 0.00 0.00 55 1012.8
20260504173022 67 196 0.0 2.6 0.00 0.00 0.00 52 1012.7
20260504171509 68 197 0.0 0.9 0.00 0.00 0.00 51 1012.6
20260504081537 65 184 1.7 7.0 0.00 0.00 0.00 45 1015.0
20260504050019 57 173 4.3 13.9 0.00 0.00 0.00 51 1014.4
20260504044505 57 141 2.6 7.8 0.00 0.00 0.00 52 1014.4
20260504043008 57 173 4.3 12.2 0.00 0.00 0.00 51 1014.5
20260504041513 57 173 2.6 13.9 0.00 0.00 0.00 51 1014.4
20260504040016 57 173 3.5 18.2 0.00 0.00 0.00 51 1014.5
20260504034517 57 231 2.6 8.7 0.00 0.00 0.00 51 1014.5
20260504033019 56 173 4.3 9.6 0.00 0.00 0.00 50 1014.5
20260504031510 57 50 2.6 9.6 0.00 0.00 0.00 50 1014.5
20260504030024 56 173 0.9 7.8 0.00 0.00 0.00 49 1014.5
20260504024521 56 173 1.7 7.8 0.00 0.00 0.00 49 1014.5
20260504023021 57 173 1.7 9.6 0.00 0.00 0.00 48 1014.4
20260504021522 57 198 5.2 10.4 0.00 0.00 0.00 48 1014.5
20260504020014 57 82 3.5 9.6 0.00 0.00 0.00 48 1014.3
20260504014526 57 160 4.3 10.4 0.00 0.00 0.00 47 1014.3
20260504013034 58 173 4.3 11.3 0.00 0.00 0.00 47 1014.3
20260504011523 58 135 2.6 11.3 0.00 0.00 0.00 46 1014.2
20260504010026 58 131 4.3 9.6 0.00 0.00 0.00 46 1014.2
20260504004514 58 173 5.2 10.4 0.00 0.00 0.00 45 1014.2
20260504003019 59 186 2.6 14.8 0.00 0.00 0.00 45 1014.1
20260504001524 59 173 5.2 10.4 0.00 0.00 0.00 45 1014.2
20260504000007 59 152 4.3 13.0 0.00 0.00 0.00 45 1014.3
20260503234512 59 173 3.5 10.4 0.00 0.00 0.00 45 1014.4
20260503233021 59 160 2.6 10.4 0.00 0.00 0.00 44 1014.5
20260503231520 59 174 3.5 8.7 0.00 0.00 0.00 45 1014.5
20260503230004 58 174 0.9 7.0 0.00 0.00 0.00 45 1014.8
20260503224509 59 173 0.9 9.6 0.00 0.00 0.00 45 1014.7
20260503223013 58 211 2.6 7.8 0.00 0.00 0.00 45 1014.6
20260503221518 57 174 0.9 2.6 0.00 0.00 0.00 47 1014.8
20260503220024 58 5 0.9 4.3 0.00 0.00 0.00 46 1015.0
20260503214503 58 160 0.9 8.7 0.00 0.00 0.00 46 1015.0
20260503213010 58 159 0.9 4.3 0.00 0.00 0.00 46 1015.1
20260503211514 59 174 1.7 5.2 0.00 0.00 0.00 45 1015.1
20260503210019 59 109 1.7 7.8 0.00 0.00 0.00 44 1015.0
20260503204523 60 174 1.7 7.8 0.00 0.00 0.00 45 1015.1
20260503203013 60 174 3.5 12.2 0.00 0.00 0.00 45 1015.0
20260503201511 60 160 6.1 15.6 0.00 0.00 0.00 45 1014.8
20260503200020 60 203 3.5 10.4 0.00 0.00 0.00 45 1015.0
20260503194534 60 214 4.3 11.3 0.00 0.00 0.00 45 1015.0
20260503193026 60 173 2.6 7.8 0.00 0.00 0.00 46 1015.0
20260503191530 60 153 0.9 7.0 0.00 0.00 0.00 46 1015.1
20260503190017 59 174 0.9 6.1 0.00 0.00 0.00 46 1015.4
20260503184523 58 174 0.0 2.6 0.00 0.00 0.00 47 1015.4
20260503183021 59 174 0.9 3.5 0.00 0.00 0.00 47 1015.3
20260503181522 60 174 0.0 1.7 0.00 0.00 0.00 47 1015.2
20260503180033 61 93 0.0 2.6 0.00 0.00 0.00 44 1015.2